Tracking 31011 objects as of 11-Jul-2025
HD Live streaming from Space Station
objects crossing your sky now

CZ-3B R/B

Track CZ-3B R/B now!
10-day predictions


NORAD ID: 44205
Int'l Code: 2019-023B
Perigee: 202.8 km
Apogee: 15,142.4 km
Inclination: 28.2 °
Period: 276.0 minutes
Semi major axis: 14043 km
RCS: Unknown
Launch date: April 20, 2019
Source: People's Republic of China (PRC)
Launch site: Xichang Space Center, China (XSC)

Note: This is a ROCKET BODY
Your satellite tracking list
Your tracking list is empty




NASA's NSSDC Master Catalog

Two Line Element Set (TLE):
1 44205U 19023B   25192.16389738  .00032097 -42949-6  61083-3 0  9991
2 44205  28.1929 149.2590 5318992 232.1806  66.7360  5.21657937 74843
Source of the keplerian elements: AFSPC